Location: Cambridge (historical)
(38.6883°N, 119.0140°W)
Time: 01:43:46
(UTC+00:00)

VELOX 1 - Pass Details

Date: 01 October 2021
Orbit: 626 x 642 km, 98.3° (Epoch: 17 October)

Event Time Altitude Azimuth Distance (km) Brightness Sun altitude
Exits shadow 11:26:58 16° 356° (N) 1,655 ? -28.7°
Drops below altitude 10° 11:27:51 10° 354° (N) 2,011 ? -28.5°
Sets 11:30:04 0° 351° (N) 2,921 ? -28.1°
